Location: Rowland
(34.5359°N, 79.2929°W)
Time: 18:55:21
(UTC+00:00)

Transit 2A Rocket - Pass Details

Date: 03 October 2022
Orbit: 589 x 911 km, 66.7° (Epoch: 03 December)

Event Time Altitude Azimuth Distance (km) Brightness Sun altitude
Rises 10:21:05 0° 202° (SSW) 2,873 7.7 -11.6°
Reaches altitude 10° 10:23:21 10° 201° (SSW) 1,944 6.9 -11.1°
Maximum altitude 10:27:41 79° 116° (ESE) 606 4.6 -10.2°
Drops below altitude 10° 10:31:57 10° 29° (NNE) 1,919 7.5 -9.3°
Sets 10:34:11 0° 28° (NNE) 2,833 8.4 -8.9°
